DW4786 Weather Reports


Display with metric or nautical units.
time (UTC)temp
F
wind
direction
speed
MPH
gust
MPH
rain 1hr
in
rain 24hr
in
rain mn
in
humidity
%
barometer
mb
20181118160003 27 0 0.0 0.0 0.01 0.01 0.01 93 1020.2
20181118155503 26 0 0.0 0.0 0.01 0.01 0.01 93 1020.1
20181118155004 26 0 0.0 0.0 0.00 0.00 0.00 93 1020.2
20181118154504 26 0 0.0 0.0 0.00 0.00 0.00 93 1020.1
20181118154004 26 0 0.0 0.0 0.00 0.00 0.00 93 1020.1
20181118153504 25 0 0.0 0.0 0.00 0.00 0.00 93 1020.1
20181118153004 25 0 0.0 0.0 0.00 0.00 0.00 93 1020.1
20181118152503 25 255 0.0 2.0 0.00 0.00 0.00 93 1020.1
20181118152003 25 256 1.0 3.0 0.00 0.00 0.00 93 1020.0
20181118151504 24 257 1.0 3.0 0.00 0.00 0.00 93 1019.9
20181118151003 24 256 0.0 3.0 0.00 0.00 0.00 93 1019.9
20181118150503 24 256 1.0 3.0 0.00 0.00 0.00 93 1020.0
20181118150003 23 257 2.0 3.0 0.00 0.00 0.00 92 1020.1
20181118145504 22 257 2.0 3.0 0.00 0.00 0.00 92 1019.9
20181118145004 22 256 2.0 3.0 0.00 0.00 0.00 92 1019.9
20181118144503 21 256 2.0 4.0 0.00 0.00 0.00 92 1019.9
20181118144003 21 257 1.0 4.0 0.00 0.00 0.00 92 1019.9
20181118143503 20 256 0.0 1.0 0.00 0.00 0.00 92 1019.8
20181118143003 20 256 0.0 2.0 0.00 0.00 0.00 91 1019.8
20181118142504 19 249 1.0 3.0 0.00 0.00 0.00 91 1019.8
20181118142004 19 240 1.0 3.0 0.00 0.00 0.00 91 1019.7
20181118141503 18 199 0.0 3.0 0.00 0.00 0.00 91 1019.7
20181118141003 18 0 0.0 0.0 0.00 0.00 0.00 91 1019.6
20181118140504 18 196 0.0 1.0 0.00 0.00 0.00 91 1019.5
20181118140004 18 196 0.0 1.0 0.00 0.00 0.00 91 1019.4
20181118135503 18 197 1.0 2.0 0.00 0.00 0.00 91 1019.9
20181118135003 18 196 1.0 3.0 0.00 0.00 0.00 91 1019.9
20181118134503 18 197 0.0 3.0 0.00 0.00 0.00 91 1019.9
20181118134003 19 197 0.0 1.0 0.00 0.00 0.00 91 1019.9
20181118133504 19 197 1.0 3.0 0.00 0.00 0.00 91 1019.9
20181118133004 20 204 1.0 4.0 0.00 0.00 0.00 91 1019.9
20181118132503 20 207 3.0 7.0 0.00 0.00 0.00 91 1019.8
20181118132003 20 209 4.0 7.0 0.00 0.00 0.00 92 1019.8
20181118131503 20 210 4.0 6.0 0.00 0.00 0.00 92 1019.7
20181118131004 20 207 4.0 6.0 0.00 0.00 0.00 92 1019.7
20181118130504 19 204 4.0 7.0 0.00 0.00 0.00 91 1019.8
20181118130003 19 206 5.0 7.0 0.00 0.00 0.00 91 1019.8
20181118125503 19 205 5.0 7.0 0.00 0.00 0.00 91 1019.8
20181118125004 19 206 4.0 6.0 0.00 0.00 0.00 91 1019.8
20181118124504 19 208 4.0 7.0 0.00 0.00 0.00 91 1019.8
20181118124003 19 205 4.0 7.0 0.00 0.00 0.00 91 1019.8
20181118123503 19 209 4.0 7.0 0.00 0.00 0.00 91 1019.9
20181118123004 19 218 3.0 6.0 0.00 0.00 0.00 91 1019.9
20181118122504 19 211 2.0 5.0 0.00 0.00 0.00 91 1019.9
20181118122003 19 205 2.0 5.0 0.00 0.00 0.00 91 1019.8
20181118121503 19 206 3.0 5.0 0.00 0.00 0.00 91 1019.9
20181118121004 19 197 2.0 5.0 0.00 0.00 0.00 92 1019.9
20181118120504 19 178 0.0 4.0 0.00 0.00 0.00 91 1019.8
20181118120004 20 184 0.0 2.0 0.00 0.00 0.00 92 1019.8
20181118115503 20 185 1.0 4.0 0.00 0.00 0.00 92 1019.9
20181118115003 20 201 2.0 6.0 0.00 0.00 0.00 92 1019.9
20181118114504 20 215 1.0 6.0 0.00 0.00 0.00 92 1019.9
20181118114003 20 217 1.0 3.0 0.00 0.00 0.00 92 1019.9
20181118113503 20 205 2.0 5.0 0.00 0.00 0.00 92 1020.1
20181118113003 20 203 2.0 6.0 0.00 0.00 0.00 92 1020.0
20181118112504 20 212 2.0 6.0 0.00 0.00 0.00 92 1020.0
20181118112004 20 214 2.0 5.0 0.00 0.00 0.00 91 1020.1
20181118111504 19 210 3.0 5.0 0.00 0.00 0.00 91 1020.0
20181118111003 19 215 3.0 6.0 0.00 0.00 0.00 91 1020.0
20181118110504 19 206 3.0 6.0 0.00 0.00 0.00 91 1020.0
20181118110004 19 198 3.0 5.0 0.00 0.00 0.00 91 1020.0
20181118105504 19 205 3.0 6.0 0.00 0.00 0.00 91 1020.6
20181118105003 19 207 4.0 6.0 0.00 0.00 0.00 91 1020.6
20181118104504 19 208 3.0 6.0 0.00 0.00 0.00 91 1020.7
20181118104004 19 187 3.0 5.0 0.00 0.00 0.00 91 1020.7
20181118103503 19 182 3.0 7.0 0.00 0.00 0.00 91 1020.7
20181118103003 19 182 3.0 7.0 0.00 0.00 0.00 91 1020.6
20181118102504 19 19 2.0 7.0 0.00 0.00 0.00 91 1020.7
20181118102003 19 34 2.0 5.0 0.00 0.00 0.00 91 1020.7
20181118101503 19 33 2.0 4.0 0.00 0.00 0.00 91 1020.7
20181118101003 19 32 2.0 4.0 0.00 0.00 0.00 91 1020.7
20181118100503 19 31 2.0 4.0 0.00 0.00 0.00 91 1020.9
20181118100004 19 31 1.0 4.0 0.00 0.00 0.00 91 1021.1
20181118095503 19 32 2.0 5.0 0.00 0.00 0.00 91 1021.1
20181118095003 19 32 3.0 5.0 0.00 0.00 0.00 91 1021.2
20181118094503 19 33 2.0 4.0 0.00 0.00 0.00 91 1021.1
20181118094004 19 33 1.0 3.0 0.00 0.00 0.00 91 1021.0
20181118093503 19 32 1.0 3.0 0.00 0.00 0.00 91 1021.2
20181118093003 19 33 1.0 3.0 0.00 0.00 0.00 91 1021.3
20181118092503 19 32 1.0 3.0 0.00 0.00 0.00 91 1021.3
20181118092004 19 32 1.0 3.0 0.00 0.00 0.00 91 1021.2
20181118091504 19 32 1.0 3.0 0.00 0.00 0.00 91 1021.3
20181118091004 19 32 2.0 3.0 0.00 0.00 0.00 91 1021.2
20181118090503 18 33 1.0 3.0 0.00 0.00 0.00 91 1021.3
20181118090004 18 33 0.0 2.0 0.00 0.00 0.00 91 1021.2
20181118085504 18 33 0.0 2.0 0.00 0.00 0.00 91 1021.1
20181118085004 18 33 1.0 2.0 0.00 0.00 0.00 91 1021.3
20181118084503 18 33 1.0 2.0 0.00 0.00 0.00 91 1021.5
20181118084004 18 33 1.0 2.0 0.00 0.00 0.00 91 1021.5
20181118083504 18 0 0.0 0.0 0.00 0.00 0.00 91 1021.5
20181118083003 18 0 0.0 0.0 0.00 0.00 0.00 91 1021.3
20181118082503 18 33 1.0 2.0 0.00 0.00 0.00 91 1021.5
20181118082003 18 33 1.0 2.0 0.00 0.00 0.00 91 1021.6
20181118081504 18 33 0.0 2.0 0.00 0.00 0.00 91 1021.5
20181118081004 18 0 0.0 0.0 0.00 0.00 0.00 91 1021.5
20181118080503 18 0 0.0 0.0 0.00 0.00 0.00 91 1021.5
20181118080006 18 0 0.0 0.0 0.00 0.00 0.00 91 1021.5
20181118075506 18 33 1.0 3.0 0.00 0.00 0.00 91 1021.9
20181118075005 18 33 1.0 3.0 0.00 0.00 0.00 91 1022.0
20181118074505 18 33 0.0 2.0 0.00 0.00 0.00 91 1022.0
20181118074006 18 0 0.0 0.0 0.00 0.00 0.00 91 1021.8
20181118073506 18 0 0.0 0.0 0.00 0.00 0.00 91 1021.9
20181118073006 18 33 1.0 3.0 0.00 0.00 0.00 91 1021.8
20181118072505 18 33 1.0 3.0 0.00 0.00 0.00 91 1022.0
20181118072006 18 33 0.0 3.0 0.00 0.00 0.00 91 1022.1
20181118071506 18 0 0.0 0.0 0.00 0.00 0.00 91 1022.0
20181118071005 18 0 0.0 0.0 0.00 0.00 0.00 91 1021.9
20181118070505 18 0 0.0 0.0 0.00 0.00 0.00 91 1021.8
20181118070006 18 0 0.0 0.0 0.00 0.00 0.00 91 1022.0
20181118065505 17 0 0.0 0.0 0.00 0.00 0.00 91 1022.0
20181118065005 17 0 0.0 0.0 0.00 0.00 0.00 91 1022.1
20181118064505 17 0 0.0 0.0 0.00 0.00 0.00 91 1022.1
20181118064006 17 0 0.0 0.0 0.00 0.00 0.00 91 1022.0
20181118063505 17 0 0.0 0.0 0.00 0.00 0.00 91 1021.9
20181118063005 17 0 0.0 0.0 0.00 0.00 0.00 91 1021.9
20181118062505 17 33 0.0 1.0 0.00 0.00 0.00 91 1022.0
20181118062006 17 32 0.0 2.0 0.00 0.00 0.00 91 1021.9
20181118061506 17 32 0.0 2.0 0.00 0.00 0.00 91 1022.1
20181118061006 17 32 0.0 1.0 0.00 0.00 0.00 91 1022.2
20181118060506 17 33 0.0 1.0 0.00 0.00 0.00 91 1022.4
20181118060006 17 32 1.0 3.0 0.00 0.00 0.00 91 1022.3
20181118055506 17 33 1.0 3.0 0.00 0.00 0.00 91 1022.8
20181118055006 17 32 2.0 3.0 0.00 0.00 0.00 91 1022.7
20181118054505 17 32 2.0 4.0 0.00 0.00 0.00 91 1022.6
20181118054006 17 32 2.0 4.0 0.00 0.00 0.00 91 1022.5
20181118053506 17 32 2.0 4.0 0.00 0.00 0.00 91 1022.5
20181118053006 17 33 1.0 4.0 0.00 0.00 0.00 91 1022.6
20181118052506 17 32 1.0 3.0 0.00 0.00 0.00 91 1022.7
20181118052006 17 33 1.0 3.0 0.00 0.00 0.00 91 1022.7
20181118051505 17 32 2.0 3.0 0.00 0.00 0.00 91 1022.6
20181118051005 17 32 1.0 3.0 0.00 0.00 0.00 91 1022.5
20181118050505 17 33 1.0 3.0 0.00 0.00 0.00 91 1022.4
20181118050006 17 33 1.0 3.0 0.00 0.00 0.00 91 1022.3
20181118045505 17 32 1.0 3.0 0.00 0.00 0.00 91 1022.2
20181118045006 17 33 2.0 3.0 0.00 0.00 0.00 91 1022.2
20181118044506 17 33 2.0 3.0 0.00 0.00 0.00 91 1022.1
20181118044005 17 32 2.0 3.0 0.00 0.00 0.00 91 1022.2
20181118043505 17 33 2.0 3.0 0.00 0.00 0.00 91 1022.0
20181118043006 17 33 2.0 4.0 0.00 0.00 0.00 91 1022.1
20181118042506 17 32 2.0 4.0 0.00 0.00 0.00 91 1021.8
20181118042005 17 32 1.0 3.0 0.00 0.00 0.00 91 1021.9
20181118041505 17 32 2.0 3.0 0.00 0.00 0.00 91 1021.8
20181118041005 17 32 2.0 3.0 0.00 0.00 0.00 91 1021.7
20181118040506 17 32 2.0 3.0 0.00 0.00 0.00 91 1021.7
20181118040006 17 33 2.0 3.0 0.00 0.00 0.00 91 1021.6
20181118035505 17 32 2.0 4.0 0.00 0.00 0.00 91 1022.0
20181118035005 17 33 2.0 4.0 0.00 0.00 0.00 91 1021.9
20181118034507 17 33 2.0 4.0 0.00 0.00 0.00 91 1021.8
20181118034005 17 32 2.0 4.0 0.00 0.00 0.00 91 1021.9
20181118033505 17 32 2.0 4.0 0.00 0.00 0.00 91 1021.9
20181118033006 17 32 3.0 4.0 0.00 0.00 0.00 91 1021.7
20181118032506 17 33 3.0 4.0 0.00 0.00 0.00 91 1021.7
20181118032006 17 32 2.0 4.0 0.00 0.00 0.00 91 1021.7
20181118031506 17 33 3.0 4.0 0.00 0.00 0.00 91 1021.6
20181118031006 17 33 3.0 5.0 0.00 0.00 0.00 91 1021.6
20181118030506 17 33 3.0 5.0 0.00 0.00 0.00 91 1021.5
20181118030006 17 33 3.0 4.0 0.00 0.00 0.00 91 1021.4
20181118025506 17 33 3.0 5.0 0.00 0.00 0.00 91 1021.9
20181118025007 17 33 3.0 5.0 0.00 0.00 0.00 91 1021.7
20181118024505 17 33 3.0 6.0 0.00 0.00 0.00 91 1021.6
20181118024005 17 33 3.0 6.0 0.00 0.00 0.00 91 1021.6
20181118023507 17 33 4.0 5.0 0.00 0.00 0.00 91 1021.5
20181118023006 17 33 3.0 5.0 0.00 0.00 0.00 91 1021.5
20181118022507 17 33 4.0 5.0 0.00 0.00 0.00 91 1021.5
20181118022006 17 33 4.0 6.0 0.00 0.00 0.00 91 1021.5
20181118021506 17 33 4.0 6.0 0.00 0.00 0.00 91 1021.3
20181118021005 17 33 4.0 6.0 0.00 0.00 0.00 91 1021.4
20181118020506 17 33 4.0 6.0 0.00 0.00 0.00 91 1021.2
20181118020006 17 33 4.0 6.0 0.00 0.00 0.00 91 1021.1
20181118015506 17 33 4.0 6.0 0.00 0.00 0.00 91 1021.6
20181118015005 17 33 4.0 6.0 0.00 0.00 0.00 91 1021.5
20181118014506 17 33 3.0 6.0 0.00 0.00 0.00 91 1021.4
20181118014006 17 33 3.0 5.0 0.00 0.00 0.00 91 1021.5
20181118013506 17 33 2.0 4.0 0.00 0.00 0.00 91 1021.4
20181118013006 17 33 3.0 4.0 0.00 0.00 0.00 91 1021.3
20181118012506 17 33 3.0 5.0 0.00 0.00 0.00 91 1021.3
20181118012006 17 33 3.0 5.0 0.00 0.00 0.00 91 1021.1
20181118011507 17 33 2.0 4.0 0.00 0.00 0.00 91 1021.1
20181118011006 17 32 2.0 4.0 0.00 0.00 0.00 91 1021.0
20181118010505 17 32 3.0 4.0 0.00 0.00 0.00 91 1021.0
20181118010006 17 32 3.0 4.0 0.00 0.00 0.00 91 1020.8
20181118005506 17 32 2.0 4.0 0.00 0.00 0.00 91 1021.2
20181118005005 17 32 2.0 4.0 0.00 0.00 0.00 91 1021.1
20181118004506 17 32 2.0 4.0 0.00 0.00 0.00 91 1021.0
20181118004006 18 32 2.0 4.0 0.00 0.00 0.00 91 1020.9
20181118003506 17 32 2.0 3.0 0.00 0.00 0.00 91 1020.8
20181118003005 17 32 2.0 4.0 0.00 0.00 0.00 91 1020.7
20181118002505 17 32 3.0 4.0 0.00 0.00 0.00 91 1020.6
20181118002006 17 32 3.0 4.0 0.00 0.00 0.00 91 1020.6
20181118001505 17 31 3.0 5.0 0.00 0.00 0.00 91 1020.4
20181118001005 17 30 3.0 5.0 0.00 0.00 0.00 91 1020.2
20181118000506 17 29 3.0 6.0 0.00 0.00 0.00 91 1020.1
20181118000006 18 32 3.0 6.0 0.00 0.00 0.00 91 1020.1
20181117235505 18 35 4.0 6.0 0.00 0.00 0.00 91 1020.6
20181117235005 18 34 4.0 6.0 0.00 0.00 0.00 91 1020.4
20181117234506 18 33 4.0 6.0 0.00 0.00 0.00 91 1020.5
20181117234005 18 33 5.0 10.0 0.00 0.00 0.00 91 1020.3
20181117233505 18 36 5.0 10.0 0.00 0.00 0.00 91 1020.3
20181117233006 18 40 5.0 7.0 0.00 0.00 0.00 91 1020.3
20181117232507 18 37 5.0 10.0 0.00 0.00 0.00 91 1020.2
20181117232006 18 36 6.0 10.0 0.00 0.00 0.00 91 1020.3
20181117231505 18 32 6.0 9.0 0.00 0.00 0.00 91 1020.2
20181117231005 18 29 6.0 10.0 0.00 0.00 0.00 91 1020.1
20181117230505 18 35 6.0 11.0 0.00 0.00 0.00 91 1019.8
20181117230006 18 33 5.0 11.0 0.00 0.00 0.00 91 1019.8
20181117225506 19 27 5.0 10.0 0.00 0.00 0.00 91 1020.3
20181117225006 19 26 5.0 10.0 0.00 0.00 0.00 91 1020.2
20181117224505 19 23 5.0 10.0 0.00 0.00 0.00 91 1020.1
20181117224006 19 22 5.0 9.0 0.00 0.00 0.00 91 1020.0
20181117223506 19 19 5.0 9.0 0.00 0.00 0.00 91 1020.0
20181117223006 19 25 5.0 11.0 0.00 0.00 0.00 91 1019.9
20181117222505 19 30 6.0 11.0 0.00 0.00 0.00 91 1019.7
20181117222005 20 33 6.0 10.0 0.00 0.00 0.00 92 1019.6
20181117221505 20 33 6.0 10.0 0.00 0.00 0.00 92 1019.5
20181117221006 20 31 6.0 12.0 0.00 0.00 0.00 92 1019.4
20181117220506 20 31 7.0 12.0 0.00 0.00 0.00 92 1019.3
20181117220005 20 28 6.0 11.0 0.00 0.00 0.00 92 1019.2
20181117215505 20 27 6.0 11.0 0.00 0.00 0.00 92 1019.6
20181117215006 21 33 7.0 11.0 0.00 0.00 0.00 92 1019.7
20181117214505 21 33 7.0 11.0 0.00 0.00 0.00 92 1019.4
20181117214005 21 30 6.0 11.0 0.00 0.00 0.00 92 1019.4
20181117213505 21 28 7.0 11.0 0.00 0.00 0.00 92 1019.4
20181117213006 22 31 7.0 12.0 0.00 0.00 0.00 92 1019.2
20181117212506 22 45 7.0 12.0 0.00 0.00 0.00 92 1019.3
20181117212006 23 57 6.0 11.0 0.00 0.00 0.00 93 1019.2
20181117211505 23 61 5.0 9.0 0.00 0.00 0.00 93 1019.1
20181117211005 23 63 5.0 8.0 0.00 0.00 0.00 93 1019.1
20181117210506 23 61 5.0 6.0 0.00 0.00 0.00 93 1019.0
20181117210006 23 61 5.0 9.0 0.00 0.00 0.00 93 1019.0
20181117205505 23 77 5.0 9.0 0.00 0.00 0.00 93 1019.4
20181117205006 23 87 5.0 10.0 0.00 0.00 0.00 93 1019.4
20181117204506 23 86 6.0 10.0 0.00 0.00 0.00 92 1019.3
20181117204006 23 86 5.0 9.0 0.00 0.00 0.00 92 1019.2
20181117203505 23 86 6.0 10.0 0.00 0.00 0.00 92 1019.1
20181117203005 23 86 6.0 10.0 0.00 0.00 0.00 92 1019.1
20181117202506 23 84 6.0 11.0 0.00 0.00 0.00 92 1019.0
20181117202006 23 84 6.0 11.0 0.00 0.00 0.00 92 1019.0
20181117201506 23 85 6.0 11.0 0.00 0.00 0.00 92 1019.0
20181117201005 23 85 6.0 11.0 0.00 0.00 0.00 92 1019.0
20181117200505 22 83 6.0 11.0 0.00 0.00 0.00 92 1018.9
20181117200006 22 80 7.0 11.0 0.00 0.00 0.00 92 1018.7
20181117195505 22 83 7.0 10.0 0.00 0.00 0.00 92 1019.2
20181117195006 22 82 7.0 11.0 0.00 0.00 0.00 92 1019.3
20181117194505 22 76 7.0 11.0 0.00 0.00 0.00 92 1019.4
20181117194005 23 70 8.0 13.0 0.00 0.00 0.00 92 1019.5
20181117193506 23 66 9.0 13.0 0.00 0.00 0.00 92 1019.5
20181117193006 23 67 8.0 12.0 0.00 0.00 0.00 92 1019.4
20181117192505 23 69 8.0 13.0 0.00 0.00 0.00 92 1019.5
20181117192006 23 68 10.0 15.0 0.00 0.00 0.00 92 1019.5
20181117191506 23 69 9.0 15.0 0.00 0.00 0.00 92 1019.5
20181117191006 23 68 10.0 15.0 0.00 0.00 0.00 93 1019.5
20181117190505 23 63 10.0 15.0 0.00 0.00 0.00 93 1019.5
20181117190006 23 60 10.0 14.0 0.00 0.00 0.00 93 1019.6
20181117185506 23 59 11.0 16.0 0.00 0.00 0.00 93 1020.0
20181117185005 23 59 11.0 16.0 0.00 0.00 0.00 93 1020.0
20181117184505 24 57 10.0 14.0 0.00 0.00 0.00 93 1019.9
20181117184006 24 55 10.0 14.0 0.00 0.00 0.00 93 1020.0
20181117183506 23 55 10.0 14.0 0.00 0.00 0.00 93 1020.1
20181117183006 23 52 9.0 15.0 0.00 0.00 0.00 93 1020.0
20181117182505 24 47 10.0 15.0 0.00 0.00 0.00 93 1020.0
20181117182005 23 49 10.0 15.0 0.00 0.00 0.00 93 1020.0
20181117181505 24 50 9.0 15.0 0.00 0.00 0.00 93 1020.0
20181117181006 24 46 9.0 14.0 0.00 0.00 0.00 93 1020.0
20181117180505 24 47 10.0 14.0 0.00 0.00 0.00 93 1020.0
20181117180006 24 50 9.0 14.0 0.00 0.00 0.00 93 1020.0
20181117175506 25 52 8.0 14.0 0.00 0.00 0.00 94 1020.5
20181117175006 27 61 6.0 11.0 0.00 0.00 0.00 94 1020.5
20181117174506 27 73 5.0 9.0 0.00 0.00 0.00 94 1020.5
20181117174005 27 69 6.0 11.0 0.00 0.00 0.00 94 1020.4
20181117173505 27 67 7.0 12.0 0.00 0.00 0.00 94 1020.3
20181117173006 27 67 7.0 12.0 0.00 0.00 0.00 94 1020.2
20181117172506 28 69 6.0 11.0 0.00 0.00 0.00 94 1020.2
20181117172006 28 77 5.0 8.0 0.00 0.00 0.00 94 1020.2
20181117171506 28 81 5.0 9.0 0.00 0.00 0.00 94 1020.2
20181117171005 28 82 4.0 9.0 0.00 0.00 0.00 94 1020.0
20181117170505 28 85 4.0 9.0 0.00 0.00 0.00 94 1020.0
20181117170005 28 85 5.0 10.0 0.00 0.00 0.00 94 1020.0
20181117165505 28 82 5.0 10.0 0.00 0.00 0.00 94 1020.5
20181117165006 28 81 5.0 8.0 0.00 0.00 0.00 94 1020.5
20181117164505 28 79 4.0 8.0 0.00 0.00 0.00 94 1020.5
20181117164005 28 82 4.0 8.0 0.00 0.00 0.00 94 1020.5
20181117163506 28 82 4.0 8.0 0.00 0.00 0.00 94 1020.5
20181117163005 28 80 5.0 8.0 0.00 0.00 0.00 94 1020.5
20181117162505 28 82 5.0 8.0 0.00 0.00 0.00 94 1020.4
20181117162006 28 87 4.0 8.0 0.00 0.00 0.00 94 1020.4
20181117161506 28 86 4.0 7.0 0.00 0.00 0.00 94 1020.3
20181117161005 28 81 5.0 9.0 0.00 0.00 0.00 94 1020.3
20181117160505 28 85 5.0 9.0 0.00 0.00 0.00 94 1020.3